Casa Grande, AZ

5:28 PM MST on November 11, 2019 (GMT -0700)
Casa Grande Municipal

Weather History for KCGZ - September, 2019

Change the Weather History Date:

Thursday, September 12, 2019

  Actual Average Record
Temperature  
Mean Temperature 86 °F -  
Max Temperature 98 °F 96 °F 105 °F (2001)
Min Temperature 73 °F 70 °F 60 °F (2005)
Cooling Degree Days 20    
Growing Degree Days 36 (Base 50)    
Moisture  
Dew Point 49 °F    
Average Humidity 30    
Maximum Humidity 53    
Minimum Humidity 13    
Precipitation  
Precipitation 0.00 in - - ()
Sea Level Pressure  
Sea Level Pressure 29.91 in    
Wind  
Wind Speed 5 mph ()    
Max Wind Speed 14 mph    
Max Gust Speed 20 mph    
Visibility 10.0 miles    
Events      
Averages and records for this station are not official NWS values.
T = Trace of Precipitation, MM = Missing Value Source: Averaged Metar Reports

Daily Weather History Graph

Daily Weather History Graph

Search for Another Location

Airport or City:

Astronomy

Sep. 12, 2019 Rise Set
Actual Time 6:08 AM MST 6:37 PM MST
Civil Twilight 5:43 AM MST 7:02 PM MST
Nautical Twilight 5:14 AM MST 7:31 PM MST
Astronomical Twilight 4:44 AM MST 8:01 PM MST
Moon 6:16 PM MST 4:40 AM MST
Length of Visible Light 13h 18m
Length of Day
12h 28m
Waxing Gibbous, 98% of the Moon is Illuminated
Sep 12
Waxing Gibbous
Sep 13
Full
Sep 21
Last Quarter
Sep 28
New
Oct 5
First Quarter

Hourly Weather History & Observations

Time (MST) Temp. Heat Index Dew Point Humidity Pressure Visibility Wind Dir Wind Speed Gust Speed Precip Events Conditions
12:56 AM 82.0 °F 82.7 °F 61.0 °F 49% 29.93 in 10.0 mi West 6.9 mph - N/A   Clear
1:56 AM 81.0 °F 81.1 °F 57.9 °F 45% 29.93 in 10.0 mi West 9.2 mph - N/A   Clear
2:56 AM 79.0 °F - 57.9 °F 48% 29.93 in 10.0 mi West 6.9 mph - N/A   Clear
3:56 AM 77.0 °F - 55.9 °F 48% 29.93 in 10.0 mi West 6.9 mph - N/A   Clear
4:56 AM 75.0 °F - 55.9 °F 51% 29.94 in 10.0 mi Calm Calm - N/A   Clear
5:56 AM 73.0 °F - 55.0 °F 53% 29.95 in 10.0 mi SSW 3.5 mph - N/A   Clear
6:56 AM 77.0 °F - 55.9 °F 48% 29.96 in 10.0 mi WNW 5.8 mph - N/A   Clear
7:56 AM 84.9 °F 83.2 °F 53.1 °F 33% 29.96 in 10.0 mi NW 4.6 mph - N/A   Clear
8:56 AM 88.0 °F 86.1 °F 55.0 °F 32% 29.97 in 10.0 mi NE 6.9 mph - N/A   Clear
9:56 AM 90.0 °F 87.9 °F 55.0 °F 30% 29.98 in 10.0 mi NNE 5.8 mph - N/A   Clear
10:56 AM 91.9 °F 89.5 °F 54.0 °F 27% 29.96 in 10.0 mi North 5.8 mph - N/A   Clear
11:56 AM 93.9 °F - 51.1 °F 23% 29.95 in 10.0 mi Calm Calm - N/A   Clear
12:56 PM 97.0 °F - 48.9 °F 19% 29.93 in 10.0 mi NNW 13.8 mph 19.6 mph N/A   Clear
2:56 PM 98.1 °F - 45.0 °F 16% 29.87 in 10.0 mi Variable 5.8 mph - N/A   Clear
3:56 PM 98.1 °F - 41.0 °F 14% 29.86 in 10.0 mi North 10.4 mph - N/A   Clear
4:56 PM 98.1 °F - 39.0 °F 13% 29.84 in 10.0 mi North - - N/A   Clear
5:56 PM 97.0 °F - 43.0 °F 16% 29.84 in 10.0 mi NW 9.2 mph - N/A   Clear
6:56 PM 93.0 °F - 43.0 °F 18% 29.85 in 10.0 mi WNW 6.9 mph - N/A   Clear
7:56 PM 88.0 °F - 42.1 °F 20% 29.86 in 10.0 mi WNW 4.6 mph - N/A   Clear
8:56 PM 86.0 °F - 41.0 °F 20% 29.87 in 10.0 mi WSW 3.5 mph - N/A   Clear
9:56 PM 82.9 °F - 41.0 °F 23% 29.87 in 10.0 mi NW 3.5 mph - N/A   Clear
10:56 PM 81.0 °F - 41.0 °F 24% 29.87 in 10.0 mi WSW 3.5 mph - N/A   Clear
11:56 PM 79.0 °F - 42.1 °F 27% 29.88 in 10.0 mi East 4.6 mph - N/A   Clear